Kahului, HI

2:35 PM HST on April 22, 2018 (GMT -1000)
Kahului

Weather History for PHOG - April, 2012

Change the Weather History Date:

Tuesday, April 17, 2012

  Actual Average Record
Temperature  
Mean Temperature 77 °F 74 °F  
Max Temperature 83 °F 82 °F 91 °F (1981)
Min Temperature 70 °F 66 °F 58 °F (1952)
Degree Days  
Heating Degree Days 0 0  
Month to date heating degree days 0 0  
Since 1 July heating degree days 0 0  
Cooling Degree Days 12 9  
Month to date cooling degree days 158 153  
Year to date cooling degree days 868 807  
Growing Degree Days 26 (Base 50)    
Moisture  
Dew Point 59 °F    
Average Humidity 53    
Maximum Humidity 68    
Minimum Humidity 37    
Precipitation  
Precipitation 0.00 in 0.05 in 3.27 in (1950)
Month to date precipitation 0.23 1.03  
Year to date precipitation 2.92 8.24  
Snow  
Snow 0.00 in - - ()
Month to date snowfall 0.0  
Since 1 July snowfall 0.0  
Snow Depth 0.00 in    
Sea Level Pressure  
Sea Level Pressure 30.13 in    
Wind  
Wind Speed 20 mph (ENE)    
Max Wind Speed 32 mph    
Max Gust Speed 41 mph    
Visibility 10 miles    
Events      
T = Trace of Precipitation, MM = Missing Value Source: NWS Daily Summary

Daily Weather History Graph

Daily Weather History Graph

Search for Another Location

Airport or City:

Astronomy

Apr. 17, 2012 Rise Set
Actual Time 6:04 AM HST 6:45 PM HST
Civil Twilight 5:42 AM HST 7:08 PM HST
Nautical Twilight 5:15 AM HST 7:35 PM HST
Astronomical Twilight 4:48 AM HST 8:02 PM HST
Moon 3:45 AM HST (4/17) 4:07 PM HST (4/17)
Length of Visible Light 13h 26m
Length of Day
12h 40m
Waning Crescent, 10% of the Moon is Illuminated
Apr 17
Waning Crescent
Apr 20
New
Apr 28
First Quarter
May 5
Full
May 12
Last Quarter

Hourly Weather History & Observations

Time (HST) Temp. Heat Index Dew Point Humidity Pressure Visibility Wind Dir Wind Speed Gust Speed Precip Events Conditions
12:54 AM 72.0 °F - 60.1 °F 66% 30.16 in 10.0 mi NE 16.1 mph 20.7 mph N/A   Partly Cloudy
1:54 AM 72.0 °F - 60.1 °F 66% 30.15 in 10.0 mi NE 15.0 mph - N/A   Scattered Clouds
2:54 AM 71.1 °F - 57.9 °F 63% 30.14 in 10.0 mi NE 16.1 mph 24.2 mph N/A   Partly Cloudy
3:54 AM 71.1 °F - 59.0 °F 66% 30.14 in 10.0 mi NE 12.7 mph - N/A   Clear
4:54 AM 71.1 °F - 59.0 °F 66% 30.14 in 10.0 mi NE 16.1 mph 20.7 mph N/A   Clear
5:54 AM 71.1 °F - 57.9 °F 63% 30.15 in 10.0 mi NE 15.0 mph - N/A   Scattered Clouds
6:54 AM 72.0 °F - 57.0 °F 59% 30.17 in 10.0 mi NE 15.0 mph - N/A   Partly Cloudy
7:54 AM 75.0 °F - 57.9 °F 55% 30.18 in 10.0 mi ENE 18.4 mph 28.8 mph N/A   Partly Cloudy
8:54 AM 77.0 °F - 59.0 °F 54% 30.18 in 10.0 mi ENE 23.0 mph 32.2 mph N/A   Partly Cloudy
9:54 AM 80.1 °F 80.6 °F 57.9 °F 47% 30.17 in 10.0 mi NE 21.9 mph 35.7 mph N/A   Partly Cloudy
10:54 AM 82.0 °F 81.3 °F 54.0 °F 38% 30.17 in 10.0 mi ENE 23.0 mph 34.5 mph N/A   Partly Cloudy
11:54 AM 82.0 °F 81.7 °F 57.0 °F 42% 30.14 in 10.0 mi ENE 23.0 mph 34.5 mph N/A   Partly Cloudy
12:54 PM 81.0 °F 80.8 °F 55.9 °F 42% 30.12 in 10.0 mi ENE 26.5 mph 39.1 mph N/A   Partly Cloudy
1:54 PM 81.0 °F 81.0 °F 57.0 °F 44% 30.09 in 10.0 mi ENE 26.5 mph 41.4 mph N/A   Clear
2:54 PM 80.1 °F 81.1 °F 61.0 °F 52% 30.06 in 10.0 mi ENE 28.8 mph 38.0 mph N/A   Partly Cloudy
3:54 PM 80.1 °F 80.7 °F 59.0 °F 48% 30.04 in 10.0 mi ENE 23.0 mph 35.7 mph N/A   Partly Cloudy
4:54 PM 78.1 °F - 57.9 °F 50% 30.05 in 10.0 mi ENE 25.3 mph 33.4 mph N/A   Clear
5:54 PM 75.9 °F - 59.0 °F 56% 30.06 in 10.0 mi ENE 20.7 mph 36.8 mph N/A   Clear
6:54 PM 73.0 °F - 59.0 °F 61% 30.09 in 10.0 mi ENE 17.3 mph 31.1 mph N/A   Partly Cloudy
7:54 PM 72.0 °F - 61.0 °F 68% 30.12 in 10.0 mi NE 19.6 mph 25.3 mph N/A   Clear
8:54 PM 72.0 °F - 61.0 °F 68% 30.14 in 10.0 mi NE 18.4 mph 25.3 mph N/A   Clear
9:54 PM 72.0 °F - 61.0 °F 68% 30.16 in 10.0 mi NE 16.1 mph 25.3 mph N/A   Clear
10:54 PM 72.0 °F - 61.0 °F 68% 30.16 in 10.0 mi NE 16.1 mph 25.3 mph N/A   Clear
11:54 PM 71.1 °F - 61.0 °F 70% 30.15 in 10.0 mi NE 13.8 mph 24.2 mph N/A   Clear